Location: Delettes
(50.6178°N, 2.2123°E)
Time: 18:46:48
(UTC+00:00)

Cosmos 1634 Rocket - Pass Details

Date: 27 February 2020
Orbit: 959 x 993 km, 82.9° (Epoch: 28 March)

Event Time Altitude Azimuth Distance (km) Brightness Sun altitude
Rises 20:35:44 0° 201° (SSW) 3,692 7.0 -29.9°
Reaches altitude 10° 20:38:17 10° 205° (SSW) 2,750 6.3 -30.2°
Maximum altitude 20:44:31 59° 284° (WNW) 1,141 4.5 -31.1°
Drops below altitude 10° 20:50:48 10° 4° (N) 2,767 6.6 -32.0°
Sets 20:53:23 0° 8° (N) 3,717 7.3 -32.3°
